Wind_Speed
9 8 8 9 9 8 8 7 6 5 4 4 3 3 3 3 3 4 5 5 5 5 6 6 6 7 6 6 6 5 5 5 4 3 3 2 1 1 1 0 0 0 1
9 8 8 7 8 8 7 6 6 5 5 4 3 3 3 2 3 3 4 5 5 5 5 5 6 6 6 5 5 5 5 5 4 4 3 2 1 1 1 1 0 0 1
8 8 8 8 8 8 7 6 6 6 5 4 3 4 3 2 2 3 4 4 4 4 4 4 5 5 5 5 5 4 4 4 4 3 3 2 2 2 2 1 1 1 1
9 8 8 8 8 8 8 7 6 6 5 4 4 4 4 3 3 3 4 4 4 4 4 4 5 5 5 4 4 4 4 4 4 3 3 2 2 1 1 1 1 1 1
9 9 9 9 9 8 8 7 7 6 5 5 5 5 5 4 3 3 3 4 4 4 4 4 4 5 5 4 4 3 3 3 3 3 3 3 2 2 2 2 2 2 2
9 10 10 10 9 9 8 7 7 7 6 5 5 5 5 5 5 4 4 4 4 4 4 4 4 4 4 4 4 4 4 4 4 4 3 3 3 3 2 2 2 3 3
9 10 10 10 10 9 9 8 8 8 7 6 6 6 6 6 6 5 5 5 5 5 4 4 4 4 4 4 3 4 4 4 4 4 4 4 3 3 3 3 3 4 4
9 10 10 11 11 10 9 9 9 8 7 7 7 7 7 7 7 6 6 5 6 6 5 5 4 4 4 4 4 4 5 5 5 5 5 4 4 4 4 4 4 5 5
8 9 9 10 10 10 10 10 10 9 8 8 8 9 8 8 7 7 6 6 6 7 6 5 5 5 5 5 5 6 6 6 6 6 6 5 5 6 6 6 6 6 7
9 9 9 10 10 10 10 10 9 9 8 9 9 8 8 8 7 7 7 7 7 7 7 7 6 7 7 7 7 7 7 7 6 6 6 6 6 7 7 8 8 8 9
9 8 9 9 9 9 9 9 9 9 9 8 8 9 8 8 8 8 8 8 8 8 8 8 8 8 8 8 8 8 8 7 7 6 6 7 8 7 8 8 9 9 10
8 9 9 9 9 9 9 9 8 9 9 10 10 10 9 9 9 9 10 10 9 9 9 10 9 10 10 10 9 9 9 8 8 8 8 8 9 9 9 10 10 10 11
8 8 9 9 8 8 8 8 8 8 9 9 10 10 10 10 11 11 11 11 11 11 12 12 12 12 12 11 11 11 10 10 10 10 10 10 10 11 11 12 12 12 12
8 8 9 9 8 8 9 8 8 8 9 10 10 10 11 12 12 12 13 13 13 13 14 14 14 13 13 13 13 13 12 12 12 12 12 12 13 13 13 13 14 14 15
9 9 9 9 9 10 10 10 10 10 10 10 11 11 12 12 12 13 13 14 14 15 15 15 15 15 15 15 15 15 15 14 14 14 14 14 15 15 15 15 16 17 17
10 10 11 10 10 11 11 11 11 11 11 12 12 12 12 13 13 13 13 14 15 15 16 15 16 16 16 17 17 17 17 16 16 16 16 16 17 17 17 18 19 19 20
11 11 11 11 11 12 13 13 13 13 13 13 13 13 13 14 14 14 15 15 16 16 16 17 17 17 17 18 18 18 18 18 17 17 18 18 19 19 20 20 21 22 23
11 11 12 12 12 13 14 14 14 14 14 14 14 14 14 15 15 16 16 16 16 16 17 17 18 18 18 18 19 19 19 19 19 19 20 21 21 22 22 23 24 25 26
11 12 12 12 13 13 14 15 15 16 16 16 16 16 16 16 17 17 16 16 17 17 18 18 18 18 18 19 19 20 20 21 21 22 23 23 24 24 25 26 27 28 29
12 12 13 13 14 14 15 15 16 17 17 17 17 18 18 17 17 17 17 18 18 19 19 19 19 19 19 20 20 21 22 23 23 24 25 26 27 27 28 29 29 30 31
12 12 13 13 13 14 15 15 16 17 17 17 18 18 18 18 18 18 19 19 20 20 19 19 20 20 21 22 22 23 23 24 25 25 26 27 28 29 30 30 31 32 33
14 14 14 14 14 15 15 15 16 17 17 17 17 18 18 19 19 20 20 20 20 20 21 21 21 22 23 23 23 24 25 26 26 27 28 29 30 30 31 32 33 34 35
16 16 16 16 16 16 16 16 16 17 18 18 18 19 19 20 20 20 21 21 21 22 22 23 24 24 24 25 26 27 27 27 28 29 30 31 32 33 33 34 35 36 37
17 18 18 18 18 18 17 18 18 18 18 19 20 20 20 21 21 21 22 22 22 23 24 25 25 26 27 28 29 29 29 30 30 31 32 33 34 35 36 37 38 39 40
18 18 19 19 19 19 19 19 20 20 21 21 21 22 22 22 22 23 23 23 24 24 25 26 27 27 28 29 29 30 30 31 32 33 34 35 36 37 38 39 40 41 41
20 20 20 20 20 20 21 21 21 22 22 22 23 23 24 24 24 24 25 25 26 26 27 27 28 28 29 30 31 31 32 33 34 35 36 36 37 38 39 40 41 42 43
Wind_Direction
226 228 225 225 220 218 219 219 221 228 240 254 268 287 307 331 353 2 2 1 4 11 11 11 14 15 15 17 19 22 24 26 29 28 25 25 23 3 6 40 78 196 216
223 228 221 223 219 215 218 222 223 226 238 252 262 280 296 318 345 354 354 354 357 4 6 7 11 15 16 16 18 21 26 28 27 28 29 26 21 16 12 15 11 279 247
227 228 219 220 219 215 218 222 226 230 241 254 263 275 286 297 324 339 340 344 350 357 3 5 6 8 10 12 16 16 17 21 21 19 18 14 12 4 6 10 339 299 281
232 226 223 223 212 215 219 224 230 235 246 258 267 269 273 282 307 325 331 342 347 348 354 359 1 6 8 9 14 12 10 11 8 4 5 8 7 350 342 353 333 306 315
226 223 219 212 209 216 222 225 230 237 246 255 265 269 266 268 288 307 317 330 336 338 343 354 358 3 4 4 6 4 0 357 351 349 342 339 330 321 328 323 308 296 287
224 221 215 211 214 218 223 227 232 238 246 254 264 267 265 265 275 288 301 314 320 324 328 338 344 348 350 349 348 347 342 340 336 330 320 312 305 302 299 295 292 292 286
223 219 217 218 217 221 231 238 241 243 249 252 260 265 265 267 271 277 288 298 305 310 317 324 325 329 333 334 329 326 320 314 313 309 302 293 286 286 287 288 287 286 287
225 221 223 222 222 227 235 242 245 246 249 254 263 264 265 272 273 276 282 287 290 294 302 313 316 316 317 319 316 314 314 311 306 303 297 289 279 279 284 288 285 281 290
228 220 223 223 226 232 237 243 246 248 252 259 264 265 263 270 274 276 279 285 289 290 293 297 304 305 307 307 310 311 313 312 304 298 292 284 283 281 284 285 286 288 293
225 222 221 225 230 235 241 246 246 251 257 258 261 262 259 265 269 273 275 279 287 286 285 290 293 292 295 298 299 303 305 311 304 298 288 279 280 283 285 285 285 285 288
223 223 226 228 235 241 246 244 247 250 254 256 257 256 255 260 265 272 270 275 283 285 284 281 283 287 289 291 295 300 298 300 302 297 293 288 283 282 287 289 287 286 287
231 230 231 237 240 246 249 250 252 252 255 255 256 259 257 263 269 272 273 275 279 282 283 281 281 283 284 286 288 292 293 295 295 291 285 284 286 282 282 285 286 287 290
236 233 234 237 240 246 249 251 255 258 257 255 257 262 263 267 272 273 273 276 276 278 281 281 281 281 282 282 282 284 286 287 288 286 284 284 285 284 282 280 281 284 287
236 234 234 237 241 244 247 250 257 264 264 259 259 263 267 270 274 276 274 275 277 278 278 278 279 281 282 282 281 280 281 284 285 284 282 282 282 282 282 282 282 283 285
240 237 240 244 247 248 250 254 258 262 264 265 264 268 271 274 276 277 277 277 278 278 278 279 279 279 279 280 280 280 279 279 280 282 282 282 281 282 283 283 283 284 285
248 247 247 248 251 253 256 258 259 261 265 268 269 271 275 277 278 279 279 281 281 281 280 280 280 280 280 280 280 280 280 279 280 280 281 282 282 282 283 283 284 286 287
253 255 254 255 258 258 259 259 260 263 267 270 271 271 275 275 276 277 279 281 283 283 282 281 280 280 280 281 281 280 280 279 279 279 280 282 284 284 283 283 284 286 288
257 261 263 260 261 263 259 259 262 264 267 269 272 275 277 278 279 280 280 282 285 285 284 283 281 281 280 280 279 280 279 278 278 279 280 281 282 283 283 284 285 287 287
260 261 263 263 263 263 262 260 263 267 269 270 272 274 278 280 282 283 283 284 284 284 284 285 285 284 283 280 279 280 280 279 279 280 281 282 283 283 283 284 285 286 287
264 263 264 264 265 267 268 265 264 266 268 270 271 274 276 278 282 283 283 285 286 284 283 283 284 284 283 282 282 282 282 282 281 282 284 284 285 285 285 286 287 287 287
267 267 266 267 269 271 272 270 267 268 270 273 275 276 276 278 282 284 284 285 285 285 284 283 283 284 284 284 285 285 284 283 283 284 285 286 286 286 287 288 288 288 289
266 266 267 268 270 272 272 273 270 271 273 274 276 278 279 282 282 283 284 284 284 284 284 284 285 286 286 286 286 287 286 285 286 286 286 287 287 287 288 289 289 290 290
266 266 267 268 269 272 273 276 276 275 273 273 275 279 281 283 284 285 285 285 286 286 286 285 286 286 287 287 287 287 286 286 287 287 287 288 288 289 289 289 290 290 290
266 266 266 268 270 272 274 277 277 277 277 276 276 278 280 283 284 285 286 287 288 289 288 287 286 285 286 287 287 286 286 287 288 289 289 289 290 290 290 290 290 291 291
268 267 267 268 270 272 273 274 276 276 277 277 277 277 279 281 283 285 286 287 289 290 291 290 289 288 287 288 289 288 288 289 290 291 292 292 292 291 291 291 291 291 292
270 270 270 270 271 273 274 275 276 276 277 277 278 278 280 282 284 285 286 287 289 291 293 293 291 290 289 289 289 289 289 290 291 291 292 292 292 292 292 293 293 293 293
Height
5866 5868 5870 5872 5873 5875 5876 5878 5879 5880 5881 5882 5882 5882 5882 5882 5881 5880 5880 5879 5878 5877 5876 5875 5874 5872 5871 5870 5870 5869 5869 5869 5869 5869 5869 5869 5869 5870 5870 5871 5871 5872 5873
5865 5867 5869 5871 5872 5874 5875 5877 5878 5879 5880 5881 5881 5882 5882 5881 5881 5880 5880 5879 5878 5877 5876 5875 5874 5873 5872 5871 5870 5870 5869 5869 5869 5869 5869 5869 5870 5870 5871 5871 5872 5872 5873
5864 5866 5867 5869 5871 5873 5874 5876 5877 5878 5879 5880 5880 5881 5881 5881 5880 5880 5879 5878 5878 5877 5876 5875 5874 5873 5872 5871 5871 5870 5870 5870 5870 5870 5870 5870 5870 5871 5871 5872 5872 5873 5873
5862 5864 5866 5868 5870 5872 5873 5875 5876 5877 5878 5879 5879 5880 5880 5880 5880 5879 5879 5878 5877 5876 5875 5874 5874 5873 5872 5871 5871 5871 5870 5870 5870 5870 5870 5870 5871 5871 5872 5872 5872 5872 5873
5861 5863 5865 5867 5869 5871 5872 5874 5875 5876 5877 5878 5878 5879 5879 5879 5879 5879 5878 5878 5877 5876 5875 5874 5874 5873 5872 5872 5871 5871 5871 5870 5870 5870 5870 5870 5871 5871 5871 5872 5872 5872 5873
5859 5861 5863 5865 5867 5869 5871 5872 5874 5875 5875 5876 5877 5877 5877 5878 5878 5878 5877 5877 5876 5876 5875 5874 5874 5873 5872 5872 5871 5871 5871 5871 5870 5870 5870 5870 5870 5870 5871 5871 5872 5872 5872
5858 5860 5862 5864 5866 5868 5869 5871 5872 5873 5874 5875 5875 5876 5876 5876 5876 5876 5876 5876 5876 5875 5874 5874 5873 5873 5872 5871 5871 5871 5870 5870 5870 5869 5869 5869 5869 5870 5870 5871 5871 5871 5871
5856 5858 5860 5862 5864 5866 5867 5869 5870 5871 5872 5873 5873 5874 5874 5875 5875 5875 5875 5875 5874 5874 5873 5873 5872 5872 5871 5871 5870 5870 5869 5869 5868 5868 5868 5868 5868 5869 5869 5869 5870 5870 5870
5855 5857 5859 5860 5862 5864 5865 5867 5868 5869 5870 5871 5871 5872 5872 5873 5873 5873 5873 5873 5873 5873 5872 5872 5871 5871 5871 5870 5870 5869 5868 5868 5867 5866 5866 5866 5867 5867 5868 5868 5868 5869 5869
5853 5855 5857 5859 5860 5862 5863 5865 5866 5867 5867 5868 5869 5870 5870 5871 5871 5871 5871 5871 5871 5871 5871 5871 5870 5870 5869 5869 5868 5868 5867 5866 5865 5864 5864 5865 5865 5866 5866 5866 5867 5867 5867
5852 5854 5855 5857 5858 5860 5861 5862 5863 5864 5865 5866 5867 5868 5868 5869 5869 5869 5869 5869 5869 5869 5869 5869 5868 5868 5867 5867 5866 5866 5865 5864 5863 5863 5863 5863 5863 5864 5864 5864 5864 5864 5864
5851 5852 5854 5855 5857 5858 5859 5860 5861 5862 5863 5864 5865 5865 5866 5867 5867 5867 5867 5867 5867 5867 5867 5866 5866 5866 5865 5864 5864 5863 5863 5862 5862 5861 5861 5861 5861 5861 5861 5861 5861 5861 5861
5850 5851 5852 5853 5855 5856 5857 5858 5859 5860 5860 5861 5862 5863 5864 5864 5865 5865 5865 5865 5865 5864 5864 5863 5863 5862 5862 5861 5861 5860 5860 5860 5859 5859 5859 5859 5859 5859 5859 5858 5858 5858 5858
5848 5849 5851 5852 5853 5854 5855 5856 5857 5858 5858 5859 5860 5861 5861 5862 5862 5862 5862 5862 5861 5861 5860 5860 5859 5859 5858 5858 5857 5857 5857 5856 5856 5856 5856 5855 5855 5855 5855 5855 5855 5854 5854
5846 5848 5849 5850 5851 5852 5853 5853 5854 5855 5856 5857 5857 5858 5858 5858 5858 5858 5858 5858 5858 5857 5856 5856 5855 5855 5854 5854 5853 5853 5853 5853 5853 5852 5852 5852 5852 5851 5851 5851 5850 5850 5849
5844 5845 5846 5847 5848 5849 5850 5851 5852 5852 5853 5854 5854 5855 5855 5855 5855 5855 5855 5855 5854 5853 5852 5852 5851 5851 5850 5849 5849 5848 5848 5848 5848 5848 5848 5848 5847 5847 5847 5846 5845 5845 5844
5842 5843 5844 5844 5845 5846 5847 5848 5848 5849 5850 5851 5851 5851 5851 5851 5852 5851 5851 5850 5850 5849 5848 5847 5847 5846 5845 5845 5844 5844 5844 5843 5843 5843 5843 5843 5842 5842 5841 5841 5840 5839 5838
5839 5840 5841 5841 5842 5843 5843 5844 5845 5846 5846 5847 5847 5847 5848 5848 5847 5847 5847 5846 5845 5845 5844 5843 5842 5842 5841 5840 5839 5839 5838 5838 5838 5838 5838 5837 5837 5836 5835 5835 5834 5833 5831
5837 5837 5838 5838 5839 5839 5840 5840 5841 5842 5842 5843 5843 5843 5843 5843 5843 5843 5842 5842 5841 5840 5839 5838 5838 5837 5836 5835 5834 5834 5833 5833 5833 5832 5832 5831 5830 5830 5829 5828 5827 5825 5824
5834 5834 5835 5835 5835 5836 5836 5837 5837 5838 5838 5839 5839 5839 5839 5839 5838 5838 5837 5837 5836 5835 5834 5834 5833 5832 5831 5830 5829 5828 5828 5827 5827 5826 5825 5824 5823 5822 5821 5820 5818 5817 5815
5831 5831 5831 5832 5832 5832 5832 5833 5833 5833 5834 5834 5834 5834 5834 5834 5833 5833 5833 5832 5831 5830 5829 5828 5827 5826 5826 5825 5824 5823 5822 5821 5820 5820 5819 5817 5816 5814 5812 5811 5809 5807 5805
5827 5827 5828 5828 5828 5828 5828 5829 5829 5829 5829 5829 5829 5829 5829 5829 5828 5828 5827 5826 5825 5825 5824 5823 5822 5821 5820 5819 5818 5817 5815 5814 5813 5812 5811 5809 5807 5806 5804 5802 5800 5797 5795
5823 5823 5823 5824 5824 5824 5824 5824 5824 5824 5825 5825 5824 5824 5824 5823 5823 5822 5821 5821 5820 5819 5818 5817 5816 5815 5814 5812 5811 5810 5808 5806 5805 5804 5802 5800 5798 5797 5795 5792 5790 5787 5784
5818 5818 5819 5819 5819 5820 5820 5820 5820 5819 5819 5819 5819 5819 5818 5818 5817 5816 5815 5814 5813 5812 5811 5810 5809 5808 5806 5805 5803 5801 5800 5798 5797 5795 5793 5791 5789 5786 5784 5782 5779 5776 5773
5813 5813 5814 5814 5814 5814 5815 5814 5814 5814 5814 5814 5813 5813 5812 5812 5811 5810 5809 5808 5807 5806 5804 5803 5802 5800 5798 5797 5795 5793 5791 5789 5787 5785 5783 5781 5778 5776 5773 5770 5767 5764 5761
5807 5808 5808 5808 5808 5808 5808 5808 5808 5808 5808 5808 5807 5807 5806 5805 5804 5804 5803 5801 5800 5798 5797 5795 5793 5792 5790 5788 5786 5784 5782 5779 5777 5775 5772 5770 5767 5764 5761 5758 5755 5751 5748